Regional Weather Roundup
Issued by NWS Jackson, KY

Home | Current Version | Previous Version | Graphics & Text | Print | Product List | Glossary On
Versions: 1 2 3 4 5 6 7 8 9 10 11 12 13 14 15 16 17 18 19 20 21 22 23 24 25 26 27
000
ASUS43 KJKL 200810
RWRJKL

EAST KENTUCKY HOURLY WEATHER ROUNDUP
NATIONAL WEATHER SERVICE JACKSON KY
400 AM EDT SUN AUG 20 2017

NOTE: "FAIR" INDICATES FEW OR NO CLOUDS BELOW 12,000 FEET WITH
NO SIGNIFICANT WEATHER AND/OR OBSTRUCTIONS TO VISIBILITY.

* THESE REPORTS ARE NOT UNDER NWS QUALITY CONTROL AND MAY NOT
  REPORT WEATHER SUCH AS PRECIPITATION AND FOG.

KYZ079-080-083-085-087-088-110-112-115-119-120-200900
...EASTERN KENTUCKY...

CITY           SKY/WX    TMP DP  RH WIND       PRES   REMARKS
JACKSON        CLEAR     69  67  93 CALM      30.07S
LONDON         CLEAR     66  65  96 CALM      30.07S FOG
SOMERSET*      CLEAR     63  63 100 CALM      30.07R
MONTICELLO*    CLEAR     66  65  96 W10       30.07S
WILLIAMSBURG*  SUNNY     66  66 100 CALM      30.07S
MIDDLESBORO*   CLOUDY    65  65 100 CALM      30.09S
HARLAN APT*    CLOUDY    64  63  94 CALM      30.11S VSB 1
PIKE CO APT*     N/A     68  68 100 S5        30.09R
BIG SANDY APT* SUNNY     70  69  98 S3        30.07S
MOREHEAD APT*  MOSUNNY   68  66  94 CALM      30.06S FOG
$$

KYZ035-036-041-042-044-050-067-078-099-200900
...CENTRAL KENTUCKY...

CITY           SKY/WX    TMP DP  RH WIND       PRES   REMARKS
MT STERLING*   CLEAR     68  66  94 SW3       30.07R
FLEMING/MASON* CLEAR     66  66 100 CALM      30.06R FOG
DANVILLE*      PTCLDY    68  64  88 CALM      30.06S
LEXINGTON      CLEAR     69  65  86 S6        30.04S
FRANKFORT      CLEAR     68  65  90 CALM      30.02S
LOUISVILLE     PTCLDY    74  70  87 SE3       30.01R
LEBANON*         N/A     72  66  83 S3        30.04R
GLASGOW*       CLEAR    N/A N/A N/A CALM      30.03S
BOWLING GREEN  CLEAR     71  71 100 CALM      30.02R
$$

KYZ091>093-OHZ055-061-077-WVZ005-015-034-035-042-200900
...SOUTHERN OHIO/WEST VIRGINIA...

CITY           SKY/WX    TMP DP  RH WIND       PRES   REMARKS
COVINGTON      CLOUDY    73  70  90 N3        30.03S
COLUMBUS       CLEAR     65  64  97 CALM      30.05R
DAYTON         PTCLDY    66  61  84 NE3       30.05S
WILMINGTON     MOCLDY    66  66 100 CALM      30.05R
HUNTINGTON     CLEAR     68  66  93 CALM      30.04R FOG
CHARLESTON     PTCLDY    67  65  93 CALM      30.06R FOG
PINEVILLE*     FOG       65  64  97 MISG      30.16R VSB 3/4
BECKLEY        CLEAR     63  60  90 S5        30.14R
BLUEFIELD      CLEAR     65  60  84 SW3       30.17R
LOGAN CO APT*  FOG       66  66 100 CALM      30.09S VSB<1/4
$$

VAZ002-007-008-TNZ017-027-036-066-071-200900
...SOUTHWEST VIRGINIA/EAST TENNESSEE...

CITY           SKY/WX    TMP DP  RH WIND       PRES   REMARKS
WISE*          PTCLDY    66  64  94 CALM      30.16S
JONESVILLE*      N/A     64  63  94 CALM      30.11S
ABINGDON*      CLEAR     66  66 100 CALM      30.13S
BRISTOL        PTCLDY    65  64  97 CALM      30.10R
MORRISTOWN*    MOSUNNY   68  66  94 CALM      30.07R
SEVIERVILLE*   SUNNY     64  63  94 CALM      30.06S
KNOXVILLE      CLEAR     69  65  86 CALM      30.05R
LAFOLLETTE*    MOSUNNY   66  66 100 CALM      30.10S FOG
OAK RIDGE      CLEAR     70  67  90 CALM      30.07R
CROSSVILLE     CLEAR     64  62  93 CALM      30.10S
NASHVILLE      PTCLDY    74  70  87 CALM      30.02S
$$

...KEY TO REMARKS...
VSB - VISIBILITY IN MILES
WCI - WIND CHILL INDEX
HX  - HEAT INDEX

$$




USA.gov is the U.S. government's official web portal to all federal, state and local government web resources and services.